Weather in Burevestnik

Russia / Nizhny Novgorod Oblast'     56°08′51″N   43°47′11″E
temp.,
°C
wind,
m/s
gust,
m/s
humid.,
%
clouds,
%
prec.,
mm/h
press.,
hPa
HPBL,
m
4 july, mon
mon400:00+15ne1279100 0.0 101557
03:00+13nne248532 0.0 101696
06:00+16ene247875 0.0 1016236
09:00+20ne345434 0.0 10161069
12:00+23ne34386 0.0 10161801
15:00+25n34345 0.0 10152222
18:00+24nnw45415 0.0 1014879
21:00+19ne246069 0.0 1015100
5 july, tue
tue500:00+16sse247241 0.0 1016108
03:00+14sse117379 0.0 101714
06:00+17ese236173 0.0 1018160
09:00+21se22459 0.0 1018828
12:00+24se22355 0.0 10181560
15:00+25s32340 0.0 10171695
18:00+24s33430 0.0 1017862
21:00+19s37640 0.0 1016185
6 july, wed
wed600:00+16ssw39677 0.0 1017204
03:00+15ssw397253 0.0 1017182
06:00+17sw4106846 0.0 1017293
09:00+22sw475677 0.0 1016547
12:00+27sw564732 0.0 10151281
15:00+28sw454159 0.0 10142098
18:00+24ssw236228 0.1 101375
21:00+22sw257198 0.2 1014177
7 july, thu
thu700:00+19ssw3887100 0.4 1014196
03:00+18s38926 0.7 1014178
06:00+20ssw498438 0.0 1014266
09:00+26sw476065 0.0 1014644
12:00+28sw5749100 0.0 10141383
15:00+30sw57436 0.0 10132029
18:00+21wsw3888100 2.4 1014236
21:00+20wnw249233 7.5 1016127
8 july, fri
fri800:00+19wsw1190100 0.9 101627
03:00+18wsw119260 1.2 101615
06:00+19ese00895 1.1 1017119
09:00+23ssw017714 2.5 1017560
12:00+27sw23576 0.0 10161217
15:00+28w34531 0.3 10151506
18:00+23s128788 6.6 1016112
21:00+20wsw35914 7.4 1016143